EDDK

Cologne/Bonn Airport

Airport
ICAO code
EDDK
IATA Code
CGN
Summary
ICAO Region
EUR
ICAO Territory
Location

Cologne,

Serving
Cologne and Bonn
Elevation
302 ft
Coordinates
50° 51' 54" N , 7° 8' 20" E
KCC
Metar
EDDK 172350Z AUTO 09004KT 7000 SCT005 13/13 Q1008 TEMPO 4000 BR BKN005

Description

Cologne/Bonn Airport (German: Flughafen Köln/Bonn, also called Konrad-Adenauer-Flughafen or Flughafen Köln-Wahn) is an international airport located in the district of Porz in the city of Cologne, Germany, and is surrounded by the Wahner Heide nature reserve. The airport is centrally located in the Cologne/Bonn Region 14.8 km southeast of Cologne city centre and 16 km northeast of Bonn.

Climatology

Temperate Marine climate/Oceanic climate (Köppen climate classification Cfb) - Moderately cool summer and comparatively warm winter.

Runways

Designator Length Width Surface Rops
14R/32L 1863 45 ASP Yes/Yes
6/24 2459 45 CON Yes/Yes
14L/32R 3815 60 ASP Yes/Yes

Airport map

Aerial View

SKYbrary Partners:

Safety knowledge contributed by: